Hourly Data Report for September 16, 2017

All times are specified in Local Standard Time (LST). Add 1 hour to adjust for Daylight Saving Time where and when it is observed.

GJOA HAVEN A
NUNAVUT

68°38'08.000" N
95°51'01.000" W
46.90 m
2302337
71597
YHK

Download Data

Hourly Data (September 2017)
Hourly Data Report for September 16, 2017
Temp Definition
°C
Dew Point Temp Definition
°C
Rel Hum Definition
%
Wind Dir Definition
10's deg

Wind Spd Definition
km/h
Visibility Definition
km
Stn Press Definition
kPa
Hmdx Definition


Wind Chill Definition


Weather Definition


TIME
00:00 Legend Double Dagger 0.5 0.5 100 25 11 16.1 100.82     LegendNANA
01:00 Legend Double Dagger 0.9 0.9 100 25 11 16.1 100.90     LegendNANA
02:00 Legend Double Dagger 2.0 2.0 100 29 15 16.1 100.92     LegendNANA
03:00 Legend Double Dagger 2.3 2.3 100 31 18 16.1 100.94     LegendNANA
04:00 Legend Double Dagger 1.8 1.8 100 33 21 11.3 101.01     LegendNANA
05:00 Legend Double Dagger 0.6 0.6 100 36 17 0.6 101.08     Fog
06:00 Legend Double Dagger -0.2 -0.2 100 35 21 2.4 101.15   -6 Fog
07:00 Legend Double Dagger -1.4 -1.4 100 33 24 3.6 101.19   -8 Fog
08:00 Legend Double Dagger -1.6 -2.0 97 34 17 16.1 101.24   -7 LegendNANA
09:00 Legend Double Dagger -0.8 -1.4 96 33 15 16.1 101.24   -5 LegendNANA
10:00 Legend Double Dagger -0.2 -1.3 92 31 13 16.1 101.26   -4 LegendNANA
11:00 Legend Double Dagger -0.1 -1.3 92 35 13 16.1 101.30   -4 LegendNANA
12:00 Legend Double Dagger 0.3 -1.2 90 34 9 16.1 101.33     LegendNANA
13:00 Legend Double Dagger 0.7 -1.1 88 29 8 16.1 101.33     LegendNANA
14:00 Legend Double Dagger 0.6 -1.0 89 12 5 16.1 101.32     LegendNANA
15:00 Legend Double Dagger 0.1 -1.1 92 18 11 16.1 101.33     LegendNANA
16:00 Legend Double Dagger -0.2 -0.6 97 15 13 16.1 101.31   -4 LegendNANA
17:00 Legend Double Dagger -0.3 -0.6 98 16 11 16.1 101.29   -4 LegendNANA
18:00 Legend Double Dagger -0.3 -0.4 99 14 17 16.1 101.21   -5 LegendNANA
19:00 Legend Double Dagger 0.1 0.1 100 13 15 3.6 101.20     Fog
20:00 Legend Double Dagger 0.8 0.8 100 13 22 0.6 101.10     Fog
21:00 Legend Double Dagger 1.8 1.8 100 14 26 1.2 101.03     Fog
22:00 Legend Double Dagger 2.6 2.6 100 14 28 1.0 100.96     Fog
23:00 Legend Double Dagger 3.5 3.5 100 14 24 1.2 100.87     Rain,Fog

Notes on Data Quality.

Legend

  • E = Estimated
  • M = Missing
  • NA = Not Available
  • ‡ = Partner data that is not subject to review by the National Climate Archives
Date modified: